Location: Glencliff
(36.1226°N, 86.7183°W)
Time: 08:11:48
(UTC+00:00)

Cosmos 1340 Rocket - Pass Details

Date: 25 August 2019
Orbit: 528 x 560 km, 81.2° (Epoch: 22 September)

Event Time Altitude Azimuth Distance (km) Brightness Sun altitude
Exits shadow 10:38:23 - 223° (SW) 2,139 5.3 -7.5°
Reaches altitude 10° 10:39:15 10° 229° (SW) 1,843 4.9 -7.3°
Maximum altitude 10:42:36 25° 285° (WNW) 1,165 4.0 -6.7°
Drops below altitude 10° 10:45:58 10° 341° (NNW) 1,848 5.5 -6.1°
Sets 10:48:28 0° 355° (N) 2,744 6.6 -5.6°
